When you browse on this site, cookies collect data to enhance your experience and personalize the content and advertising you see.
Visit our Privacy Policy to learn more. By continuing to use the site, you agree to this use of cookies and data.

Meteo orario Roma

Oggi, 13 Agosto, Giovedi

Tempo Temperatura Precipitazioni Vento Pressione Umidità
00:00 +27°C° 0 mm 1 m/s 759 mm Hg 56%
01:00 +26°C° 0 mm 1 m/s 760 mm Hg 55%
02:00 +26°C° 0 mm 1 m/s 759 mm Hg 54%
03:00 +26°C° 0 mm 1 m/s 759 mm Hg 54%
04:00 +26°C° 0 mm 1 m/s 759 mm Hg 53%
05:00 +27°C° 0 mm 1 m/s 759 mm Hg 50%
06:00 +28°C° 0 mm 1 m/s 759 mm Hg 47%
07:00 +29°C° 0 mm 1 m/s 760 mm Hg 43%
08:00 +31°C° 0 mm 1 m/s 759 mm Hg 38%
09:00 +33°C° 0 mm 1 m/s 759 mm Hg 33%
10:00 +36°C° 0 mm 1 m/s 759 mm Hg 27%
11:00 +37°C° 0 mm 2 m/s 759 mm Hg 27%
12:00 +38°C° 0 mm 3 m/s 759 mm Hg 26%
13:00 +38°C° 0 mm 3 m/s 759 mm Hg 26%
14:00 +38°C° 0 mm 3 m/s 759 mm Hg 27%
15:00 +37°C° 0 mm 4 m/s 758 mm Hg 29%
16:00 +36°C° 0 mm 4 m/s 758 mm Hg 31%
17:00 +35°C° 0 mm 3 m/s 758 mm Hg 36%
18:00 +33°C° 0 mm 3 m/s 758 mm Hg 41%
19:00 +30°C° 0 mm 2 m/s 758 mm Hg 47%
20:00 +29°C° 0 mm 2 m/s 758 mm Hg 52%
21:00 +28°C° 0 mm 1 m/s 758 mm Hg 57%
22:00 +27°C° 0 mm 1 m/s 758 mm Hg 62%
23:00 +27°C° 0 mm 1 m/s 758 mm Hg 61%

Domani, 14 Agosto, Venerdi

Tempo Temperatura Precipitazioni Vento Pressione Umidità
00:00 +26°C° 0 mm 1 m/s 758 mm Hg 60%
01:00 +26°C° 0 mm 2 m/s 758 mm Hg 59%
02:00 +26°C° 0 mm 2 m/s 757 mm Hg 59%
03:00 +26°C° 0 mm 2 m/s 757 mm Hg 59%
04:00 +25°C° 0 mm 2 m/s 757 mm Hg 58%
05:00 +26°C° 0 mm 2 m/s 757 mm Hg 56%
06:00 +27°C° 0 mm 2 m/s 757 mm Hg 54%
07:00 +28°C° 0 mm 3 m/s 757 mm Hg 52%
08:00 +30°C° 0 mm 3 m/s 757 mm Hg 48%
09:00 +33°C° 0 mm 4 m/s 757 mm Hg 44%
10:00 +35°C° 0 mm 4 m/s 756 mm Hg 40%
11:00 +35°C° 0 mm 4 m/s 756 mm Hg 42%
12:00 +35°C° 0 mm 5 m/s 756 mm Hg 44%
13:00 +35°C° 0 mm 5 m/s 756 mm Hg 46%
14:00 +35°C° 0 mm 5 m/s 756 mm Hg 47%
15:00 +35°C° 0 mm 4 m/s 756 mm Hg 47%
16:00 +35°C° 0 mm 3 m/s 755 mm Hg 48%
17:00 +33°C° 0 mm 3 m/s 756 mm Hg 54%
18:00 +31°C° 0 mm 2 m/s 756 mm Hg 60%
19:00 +29°C° 0 mm 2 m/s 756 mm Hg 66%
20:00 +28°C° 0 mm 1 m/s 756 mm Hg 71%
21:00 +27°C° 0 mm 1 m/s 756 mm Hg 76%
22:00 +26°C° 0 mm 1 m/s 757 mm Hg 81%
23:00 +26°C° 0 mm 1 m/s 757 mm Hg 82%

Dopodomani, 15 Agosto, Sabato

Tempo Temperatura Precipitazioni Vento Pressione Umidità
00:00 +26°C° 0 mm 1 m/s 757 mm Hg 83%
01:00 +25°C° 0 mm 1 m/s 757 mm Hg 83%
02:00 +25°C° 0 mm 1 m/s 757 mm Hg 83%
03:00 +25°C° 0 mm 1 m/s 756 mm Hg 83%
04:00 +23°C° 0 mm 0 m/s 756 mm Hg 83%
05:00 +26°C° 0 mm 1 m/s 756 mm Hg 79%
06:00 +27°C° 0 mm 1 m/s 756 mm Hg 74%
07:00 +27°C° 0 mm 1 m/s 757 mm Hg 70%
08:00 +30°C° 0 mm 1 m/s 757 mm Hg 60%
09:00 +32°C° 0 mm 1 m/s 757 mm Hg 49%
10:00 +35°C° 0 mm 1 m/s 757 mm Hg 38%
11:00 +36°C° 0 mm 2 m/s 757 mm Hg 35%
12:00 +37°C° 0 mm 3 m/s 756 mm Hg 32%
13:00 +38°C° 0 mm 4 m/s 756 mm Hg 29%
14:00 +37°C° 0 mm 4 m/s 756 mm Hg 31%
15:00 +37°C° 0 mm 5 m/s 756 mm Hg 33%
16:00 +36°C° 0 mm 5 m/s 756 mm Hg 35%
17:00 +34°C° 0 mm 4 m/s 756 mm Hg 39%
18:00 +33°C° 0 mm 3 m/s 756 mm Hg 44%
19:00 +30°C° 0 mm 2 m/s 756 mm Hg 48%
20:00 +29°C° 0 mm 2 m/s 756 mm Hg 51%
21:00 +28°C° 0 mm 1 m/s 756 mm Hg 55%
22:00 +27°C° 0 mm 1 m/s 756 mm Hg 58%
23:00 +26°C° 0 mm 1 m/s 756 mm Hg 56%

16 Agosto, Domenica

Tempo Temperatura Precipitazioni Vento Pressione Umidità
00:00 +26°C° 0 mm 1 m/s 756 mm Hg 54%
01:00 +26°C° 0 mm 1 m/s 756 mm Hg 53%
02:00 +25°C° 0 mm 1 m/s 756 mm Hg 52%
03:00 +25°C° 0 mm 1 m/s 756 mm Hg 51%
04:00 +25°C° 0 mm 1 m/s 756 mm Hg 50%
05:00 +26°C° 0 mm 1 m/s 756 mm Hg 47%
06:00 +27°C° 0 mm 1 m/s 756 mm Hg 44%
07:00 +28°C° 0 mm 1 m/s 756 mm Hg 41%
08:00 +30°C° 0 mm 1 m/s 756 mm Hg 37%
09:00 +32°C° 0 mm 1 m/s 756 mm Hg 33%
10:00 +34°C° 0 mm 1 m/s 757 mm Hg 28%
11:00 +36°C° 0 mm 2 m/s 756 mm Hg 27%
12:00 +37°C° 0 mm 2 m/s 756 mm Hg 26%
13:00 +38°C° 0 mm 3 m/s 756 mm Hg 25%
14:00 +37°C° 0 mm 3 m/s 756 mm Hg 28%
15:00 +37°C° 0 mm 4 m/s 756 mm Hg 30%
16:00 +36°C° 0 mm 4 m/s 755 mm Hg 33%
17:00 +34°C° 0 mm 4 m/s 756 mm Hg 40%
18:00 +31°C° 0 mm 3 m/s 756 mm Hg 47%
19:00 +30°C° 0 mm 2 m/s 756 mm Hg 53%
20:00 +29°C° 0 mm 2 m/s 756 mm Hg 56%
21:00 +28°C° 0 mm 1 m/s 756 mm Hg 59%
22:00 +27°C° 0 mm 1 m/s 757 mm Hg 61%
23:00 +26°C° 0 mm 1 m/s 757 mm Hg 60%

17 Agosto, Lunedi

Tempo Temperatura Precipitazioni Vento Pressione Umidità
00:00 +26°C° 0 mm 1 m/s 756 mm Hg 59%
01:00 +26°C° 0 mm 1 m/s 756 mm Hg 58%
02:00 +25°C° 0 mm 1 m/s 756 mm Hg 57%
03:00 +25°C° 0 mm 1 m/s 756 mm Hg 56%
04:00 +25°C° 0 mm 1 m/s 756 mm Hg 56%
05:00 +26°C° 0 mm 1 m/s 756 mm Hg 53%
06:00 +27°C° 0 mm 1 m/s 756 mm Hg 51%
07:00 +28°C° 0 mm 1 m/s 756 mm Hg 48%
08:00 +30°C° 0 mm 2 m/s 756 mm Hg 43%
09:00 +32°C° 0 mm 2 m/s 756 mm Hg 38%
10:00 +35°C° 0 mm 2 m/s 756 mm Hg 33%
11:00 +36°C° 0 mm 3 m/s 756 mm Hg 34%
12:00 +36°C° 0 mm 4 m/s 755 mm Hg 35%
13:00 +36°C° 0 mm 5 m/s 755 mm Hg 36%
14:00 +36°C° 0 mm 5 m/s 755 mm Hg 38%
15:00 +35°C° 0 mm 4 m/s 755 mm Hg 40%
16:00 +35°C° 0 mm 4 m/s 754 mm Hg 42%
17:00 +33°C° 0 mm 3 m/s 754 mm Hg 50%
18:00 +31°C° 0 mm 3 m/s 754 mm Hg 58%
19:00 +29°C° 0 mm 2 m/s 754 mm Hg 66%
20:00 +28°C° 0 mm 2 m/s 755 mm Hg 70%
21:00 +27°C° 0 mm 1 m/s 755 mm Hg 75%
22:00 +26°C° 0 mm 1 m/s 755 mm Hg 79%
23:00 +26°C° 0 mm 1 m/s 755 mm Hg 80%

18 Agosto, Martedi

Tempo Temperatura Precipitazioni Vento Pressione Umidità
00:00 +26°C° 0 mm 1 m/s 755 mm Hg 81%
01:00 +25°C° 0 mm 1 m/s 755 mm Hg 82%
02:00 +25°C° 0 mm 1 m/s 755 mm Hg 81%
03:00 +25°C° 0 mm 1 m/s 754 mm Hg 81%
04:00 +25°C° 0 mm 1 m/s 754 mm Hg 81%
05:00 +25°C° 0 mm 1 m/s 754 mm Hg 78%
06:00 +26°C° 0 mm 1 m/s 754 mm Hg 75%
07:00 +27°C° 0 mm 1 m/s 754 mm Hg 72%
08:00 +29°C° 0 mm 1 m/s 754 mm Hg 63%
09:00 +31°C° 0 mm 1 m/s 754 mm Hg 55%
10:00 +33°C° 0 mm 1 m/s 754 mm Hg 47%
11:00 +35°C° 0 mm 2 m/s 754 mm Hg 44%
12:00 +36°C° 0 mm 3 m/s 754 mm Hg 42%
13:00 +36°C° 0 mm 3 m/s 754 mm Hg 39%
14:00 +36°C° 0 mm 4 m/s 753 mm Hg 40%
15:00 +35°C° 0 mm 5 m/s 753 mm Hg 42%
16:00 +35°C° 0 mm 6 m/s 753 mm Hg 43%
17:00 +33°C° 0 mm 5 m/s 753 mm Hg 48%
18:00 +30°C° 0 mm 4 m/s 753 mm Hg 53%
19:00 +28°C° 0 mm 3 m/s 753 mm Hg 58%
20:00 +27°C° 0 mm 2 m/s 754 mm Hg 63%
21:00 +27°C° 0 mm 2 m/s 754 mm Hg 67%
22:00 +26°C° 0 mm 1 m/s 754 mm Hg 72%
23:00 +25°C° 0 mm 1 m/s 754 mm Hg 72%
Mostrare altro